Location: Unspecified
(43.4354°N, 0.0000°E)
Time: 15:55:12
(UTC+00:00)

Transit 2A - Pass Details

Date: 17 June 2019
Orbit: 597 x 962 km, 66.7° (Epoch: 21 August)

Event Time Altitude Azimuth Distance (km) Brightness Sun altitude
Rises 12:01:08 0° 310° (NW) 3,379 9.2 69.9°
Reaches altitude 10° 12:05:21 10° 281° (W) 2,342 8.6 69.9°
Maximum altitude 12:07:13 12° 260° (W) 2,168 8.6 69.9°
Drops below altitude 10° 12:09:02 10° 239° (WSW) 2,248 8.8 69.9°
Sets 12:12:52 0° 208° (SSW) 3,069 9.4 69.8°
